Time,TemperatureF,DewpointF,PressureIn,WindDirection,WindDirectionDegrees,WindSpeedMPH,WindSpeedGustMPH,Humidity,HourlyPrecipIn,Conditions,Clouds,dailyrainin,SolarRadiationWatts/m^2,SoftwareType,DateUTC
2013-07-30 00:00:00,72.9,70.8,28.73,SSE,153,0.0,6.0,93,0.07,RA,,0.00,0.0,WeatherDisplay:10.37,2013-07-30 05:00:00,
2013-07-30 00:10:00,72.6,70.8,28.73,SSE,158,1.0,7.0,94,0.08,RA,,0.02,0.0,WeatherDisplay:10.37,2013-07-30 05:10:00,
2013-07-30 00:20:00,72.4,70.9,28.74,SSE,153,2.0,8.0,95,0.09,RA,,0.05,0.0,WeatherDisplay:10.37,2013-07-30 05:20:00,
2013-07-30 00:30:00,72.2,70.7,28.74,SSE,149,3.0,12.0,95,0.12,RA,,0.08,0.0,WeatherDisplay:10.37,2013-07-30 05:30:00,
2013-07-30 00:40:00,72.0,70.5,28.73,SE,143,5.0,12.0,95,0.01,RA,,0.11,0.0,WeatherDisplay:10.37,2013-07-30 05:40:00,
2013-07-30 00:50:00,71.9,70.7,28.72,SSE,153,3.0,12.0,96,0.04,RA,,0.15,0.0,WeatherDisplay:10.37,2013-07-30 05:50:00,
2013-07-30 01:00:00,71.8,70.6,28.72,SE,137,6.0,12.0,96,0.18,RA,,0.18,0.0,WeatherDisplay:10.37,2013-07-30 06:00:00,
2013-07-30 01:10:00,71.7,70.8,28.73,SE,124,2.0,10.0,97,0.20,RA,,0.22,0.0,WeatherDisplay:10.37,2013-07-30 06:10:00,
2013-07-30 01:20:00,71.6,70.7,28.73,SE,129,2.0,7.0,97,0.21,RA,,0.26,0.0,WeatherDisplay:10.37,2013-07-30 06:20:00,
2013-07-30 01:30:00,71.5,70.6,28.73,ESE,121,6.0,14.0,97,0.22,RA,,0.30,0.0,WeatherDisplay:10.37,2013-07-30 06:30:00,
2013-07-30 01:40:00,71.5,70.6,28.72,SE,125,1.0,9.0,97,0.23,RA,,0.34,0.0,WeatherDisplay:10.37,2013-07-30 06:40:00,
2013-07-30 01:50:00,71.4,70.5,28.73,East,92,0.0,9.0,97,0.23,RA,,0.38,0.0,WeatherDisplay:10.37,2013-07-30 06:50:00,
2013-07-30 02:00:00,71.3,70.5,28.73,ENE,61,0.0,7.0,97,0.25,RA,,0.43,0.0,WeatherDisplay:10.37,2013-07-30 07:00:00,
2013-07-30 02:10:00,71.3,70.4,28.73,North,350,0.0,4.0,97,0.25,RA,,0.47,0.0,WeatherDisplay:10.37,2013-07-30 07:10:00,
2013-07-30 02:20:00,71.3,70.7,28.72,North,11,1.0,4.0,98,0.26,RA,,0.52,0.0,WeatherDisplay:10.37,2013-07-30 07:20:00,
2013-07-30 02:30:00,71.2,70.6,28.71,ESE,115,2.0,12.0,98,0.26,RA,,0.56,0.0,WeatherDisplay:10.37,2013-07-30 07:30:00,
2013-07-30 02:40:00,71.3,70.7,28.71,SE,125,2.0,12.0,98,0.26,RA,,0.60,0.0,WeatherDisplay:10.37,2013-07-30 07:40:00,
2013-07-30 02:50:00,71.2,70.6,28.71,SE,130,6.0,12.0,98,0.25,RA,,0.63,0.0,WeatherDisplay:10.37,2013-07-30 07:50:00,
2013-07-30 03:00:00,71.2,70.6,28.71,SE,137,6.0,15.0,98,0.25,RA,,0.68,0.0,WeatherDisplay:10.37,2013-07-30 08:00:00,
2013-07-30 03:10:00,71.2,70.6,28.70,SE,130,2.0,12.0,98,0.24,RA,,0.72,0.0,WeatherDisplay:10.37,2013-07-30 08:10:00,
2013-07-30 03:20:00,71.5,70.9,28.70,SE,142,3.0,16.0,98,0.23,RA,,0.75,0.0,WeatherDisplay:10.37,2013-07-30 08:20:00,
2013-07-30 03:30:00,71.4,70.8,28.69,SE,128,8.0,14.0,98,0.23,RA,,0.79,0.0,WeatherDisplay:10.37,2013-07-30 08:30:00,
2013-07-30 03:40:00,71.5,70.9,28.70,SSE,153,1.0,13.0,98,0.23,RA,,0.83,0.0,WeatherDisplay:10.37,2013-07-30 08:40:00,
2013-07-30 03:50:00,71.4,70.8,28.71,SW,219,1.0,5.0,98,0.23,RA,,0.86,0.0,WeatherDisplay:10.37,2013-07-30 08:50:00,
2013-07-30 04:00:00,70.4,69.5,28.70,NNE,28,5.0,9.0,97,0.22,RA,,0.90,0.0,WeatherDisplay:10.37,2013-07-30 09:00:00,
2013-07-30 04:10:00,69.9,69.0,28.71,SE,135,0.0,9.0,97,0.23,RA,,0.94,0.0,WeatherDisplay:10.37,2013-07-30 09:10:00,
2013-07-30 04:20:00,69.8,69.3,28.70,South,186,0.0,6.0,98,0.23,RA,,0.98,0.0,WeatherDisplay:10.37,2013-07-30 09:20:00,
2013-07-30 04:30:00,69.9,69.3,28.70,South,182,0.0,3.0,98,0.22,RA,,1.01,0.0,WeatherDisplay:10.37,2013-07-30 09:30:00,
2013-07-30 04:40:00,69.9,69.3,28.70,South,182,0.0,0.0,98,0.22,RA,,1.05,0.0,WeatherDisplay:10.37,2013-07-30 09:40:00,
2013-07-30 04:50:00,70.0,69.4,28.70,South,182,0.0,2.0,98,0.22,RA,,1.08,0.0,WeatherDisplay:10.37,2013-07-30 09:50:00,
2013-07-30 05:00:00,70.0,69.4,28.70,South,182,0.0,3.0,98,0.22,RA,,1.12,0.0,WeatherDisplay:10.37,2013-07-30 10:00:00,
2013-07-30 05:10:00,70.1,69.5,28.70,South,182,0.0,4.0,98,0.21,RA,,1.15,0.0,WeatherDisplay:10.37,2013-07-30 10:10:00,
2013-07-30 05:20:00,70.4,70.1,28.70,South,170,2.0,6.0,99,0.20,RA,,1.18,0.0,WeatherDisplay:10.37,2013-07-30 10:20:00,
2013-07-30 05:30:00,70.8,70.5,28.70,South,172,0.0,5.0,99,0.20,RA,,1.21,0.0,WeatherDisplay:10.37,2013-07-30 10:30:00,
2013-07-30 05:40:00,71.1,70.8,28.70,South,172,1.0,4.0,99,0.18,RA,,1.23,0.0,WeatherDisplay:10.37,2013-07-30 10:40:00,
2013-07-30 05:50:00,71.7,71.4,28.71,South,170,0.0,6.0,99,0.18,RA,,1.26,0.0,WeatherDisplay:10.37,2013-07-30 10:50:00,
2013-07-30 06:00:00,71.8,71.5,28.71,South,170,0.0,3.0,99,0.16,RA,,1.28,0.0,WeatherDisplay:10.37,2013-07-30 11:00:00,
2013-07-30 06:10:00,71.7,71.4,28.71,South,170,1.0,4.0,99,0.16,RA,,1.31,0.0,WeatherDisplay:10.37,2013-07-30 11:10:00,
2013-07-30 06:20:00,71.7,71.4,28.71,South,170,0.0,2.0,99,0.15,RA,,1.33,0.0,WeatherDisplay:10.37,2013-07-30 11:20:00,
2013-07-30 06:30:00,71.8,71.5,28.71,South,170,0.0,4.0,99,0.14,RA,,1.35,0.0,WeatherDisplay:10.37,2013-07-30 11:30:00,
2013-07-30 06:40:00,71.8,71.5,28.71,South,170,0.0,2.0,99,0.14,RA,,1.37,0.0,WeatherDisplay:10.37,2013-07-30 11:40:00,
2013-07-30 06:50:00,71.6,71.3,28.71,South,172,1.0,6.0,99,0.13,RA,,1.39,0.0,WeatherDisplay:10.37,2013-07-30 11:50:00,
2013-07-30 07:00:00,71.3,71.0,28.71,South,173,1.0,6.0,99,0.13,RA,,1.41,0.0,WeatherDisplay:10.37,2013-07-30 12:00:00,
2013-07-30 07:10:00,71.2,70.9,28.71,South,175,0.0,4.0,99,0.12,RA,,1.43,0.0,WeatherDisplay:10.37,2013-07-30 12:10:00,
2013-07-30 07:20:00,71.1,70.5,28.72,South,177,1.0,5.0,98,0.11,RA,,1.44,0.0,WeatherDisplay:10.37,2013-07-30 12:20:00,
2013-07-30 07:30:00,71.0,70.4,28.72,South,179,0.0,3.0,98,0.11,RA,,1.46,0.0,WeatherDisplay:10.37,2013-07-30 12:30:00,
2013-07-30 07:40:00,71.0,70.4,28.72,South,179,0.0,3.0,98,0.10,RA,,1.47,0.0,WeatherDisplay:10.37,2013-07-30 12:40:00,
2013-07-30 07:50:00,71.0,70.4,28.72,South,177,0.0,4.0,98,0.10,RA,,1.49,0.0,WeatherDisplay:10.37,2013-07-30 12:50:00,
2013-07-30 08:00:00,70.9,70.3,28.72,South,177,0.0,6.0,98,0.09,RA,,1.50,0.0,WeatherDisplay:10.37,2013-07-30 13:00:00,
2013-07-30 08:10:00,71.0,70.4,28.72,South,169,0.0,5.0,98,0.08,RA,,1.51,0.0,WeatherDisplay:10.37,2013-07-30 13:10:00,
2013-07-30 08:20:00,71.0,70.4,28.72,SSW,206,0.0,7.0,98,0.09,RA,,1.53,0.0,WeatherDisplay:10.37,2013-07-30 13:20:00,
2013-07-30 08:30:00,71.1,70.5,28.72,South,185,1.0,6.0,98,0.08,RA,,1.54,0.0,WeatherDisplay:10.37,2013-07-30 13:30:00,
2013-07-30 08:40:00,71.2,70.6,28.72,South,182,2.0,5.0,98,0.08,RA,,1.55,0.0,WeatherDisplay:10.37,2013-07-30 13:40:00,
2013-07-30 08:50:00,71.3,70.7,28.72,SSW,195,0.0,7.0,98,0.07,RA,,1.56,0.0,WeatherDisplay:10.37,2013-07-30 13:50:00,
2013-07-30 09:00:00,71.4,70.8,28.71,South,184,1.0,7.0,98,0.07,RA,,1.57,0.0,WeatherDisplay:10.37,2013-07-30 14:00:00,
2013-07-30 09:10:00,71.5,70.9,28.71,South,181,1.0,6.0,98,0.07,RA,,1.58,0.0,WeatherDisplay:10.37,2013-07-30 14:10:00,
2013-07-30 09:20:00,71.7,71.1,28.71,South,175,3.0,7.0,98,0.06,RA,,1.59,0.0,WeatherDisplay:10.37,2013-07-30 14:20:00,
2013-07-30 09:30:00,72.1,71.5,28.71,South,173,2.0,7.0,98,0.06,RA,,1.60,0.0,WeatherDisplay:10.37,2013-07-30 14:30:00,
2013-07-30 09:40:00,72.2,71.3,28.72,SSW,194,5.0,9.0,97,0.06,RA,,1.61,0.0,WeatherDisplay:10.37,2013-07-30 14:40:00,
2013-07-30 09:50:00,72.6,72.0,28.71,SSW,203,2.0,4.0,98,0.06,RA,,1.62,0.0,WeatherDisplay:10.37,2013-07-30 14:50:00,
2013-07-30 10:00:00,73.0,72.4,28.71,South,173,1.0,6.0,98,0.05,FEW,,1.62,0.0,WeatherDisplay:10.37,2013-07-30 15:00:00,
2013-07-30 10:10:00,73.4,72.5,28.71,South,179,1.0,6.0,97,0.05,RA,,1.63,0.0,WeatherDisplay:10.37,2013-07-30 15:10:00,
2013-07-30 10:20:00,73.7,72.8,28.71,South,188,0.0,6.0,97,0.05,RA,,1.64,0.0,WeatherDisplay:10.37,2013-07-30 15:20:00,
2013-07-30 10:30:00,73.7,72.5,28.71,SSW,207,2.0,5.0,96,0.05,RA,,1.65,0.0,WeatherDisplay:10.37,2013-07-30 15:30:00,
2013-07-30 10:40:00,73.8,72.3,28.71,SSW,198,2.0,5.0,95,0.05,RA,,1.66,0.0,WeatherDisplay:10.37,2013-07-30 15:40:00,
2013-07-30 10:50:00,74.3,72.8,28.72,South,187,2.0,7.0,95,0.04,FEW,,1.66,0.0,WeatherDisplay:10.37,2013-07-30 15:50:00,
2013-07-30 11:00:00,74.9,73.4,28.72,South,189,1.0,5.0,95,0.05,RA,,1.67,0.0,WeatherDisplay:10.37,2013-07-30 16:00:00,
2013-07-30 11:10:00,75.0,73.2,28.72,WSW,240,1.0,10.0,94,0.05,RA,,1.68,0.0,WeatherDisplay:10.37,2013-07-30 16:10:00,
2013-07-30 11:20:00,74.9,73.1,28.72,SW,221,1.0,5.0,94,0.05,RA,,1.69,0.0,WeatherDisplay:10.37,2013-07-30 16:20:00,
2013-07-30 11:30:00,74.6,72.1,28.73,WSW,238,5.0,12.0,92,0.04,FEW,,1.69,0.0,WeatherDisplay:10.37,2013-07-30 16:30:00,
2013-07-30 11:40:00,73.9,71.1,28.73,SW,222,3.0,12.0,91,0.04,RA,,1.70,0.0,WeatherDisplay:10.37,2013-07-30 16:40:00,
2013-07-30 11:50:00,73.1,71.0,28.73,WSW,245,3.0,9.0,93,0.04,FEW,,1.70,0.0,WeatherDisplay:10.37,2013-07-30 16:50:00,
2013-07-30 12:00:00,71.8,69.3,28.73,WSW,242,1.0,7.0,92,0.04,RA,,1.71,0.0,WeatherDisplay:10.37,2013-07-30 17:00:00,
2013-07-30 12:10:00,70.9,69.1,28.73,SW,226,1.0,6.0,94,0.03,FEW,,1.71,0.0,WeatherDisplay:10.37,2013-07-30 17:10:00,
2013-07-30 12:20:00,70.8,69.6,28.72,SW,230,0.0,4.0,96,0.03,RA,,1.72,0.0,WeatherDisplay:10.37,2013-07-30 17:20:00,
2013-07-30 12:30:00,71.0,70.1,28.72,SSW,200,0.0,5.0,97,0.03,FEW,,1.72,0.0,WeatherDisplay:10.37,2013-07-30 17:30:00,
2013-07-30 12:40:00,70.9,70.0,28.72,SSW,200,0.0,6.0,97,0.03,RA,,1.73,0.0,WeatherDisplay:10.37,2013-07-30 17:40:00,
2013-07-30 12:50:00,71.1,70.2,28.72,SSW,200,0.0,1.0,97,0.03,FEW,,1.73,0.0,WeatherDisplay:10.37,2013-07-30 17:50:00,
2013-07-30 13:00:00,71.2,70.3,28.71,SSW,200,0.0,1.0,97,0.03,RA,,1.74,0.0,WeatherDisplay:10.37,2013-07-30 18:00:00,
2013-07-30 13:10:00,71.2,70.0,28.71,SSW,200,1.0,2.0,96,0.03,FEW,,1.74,0.0,WeatherDisplay:10.37,2013-07-30 18:10:00,
2013-07-30 13:20:00,71.5,70.6,28.71,SSW,200,0.0,1.0,97,0.03,RA,,1.75,0.0,WeatherDisplay:10.37,2013-07-30 18:20:00,
2013-07-30 13:30:00,71.9,71.0,28.71,SSW,200,0.0,2.0,97,0.03,FEW,,1.75,0.0,WeatherDisplay:10.37,2013-07-30 18:30:00,
2013-07-30 13:40:00,72.4,71.2,28.71,SSW,200,0.0,2.0,96,0.02,FEW,,1.75,0.0,WeatherDisplay:10.37,2013-07-30 18:40:00,
2013-07-30 13:50:00,73.1,71.9,28.70,SSW,200,0.0,3.0,96,0.03,RA,,1.76,0.0,WeatherDisplay:10.37,2013-07-30 18:50:00,
2013-07-30 14:00:00,73.4,71.6,28.70,SSW,200,1.0,4.0,94,0.02,FEW,,1.76,0.0,WeatherDisplay:10.37,2013-07-30 19:00:00,
2013-07-30 14:10:00,73.7,71.9,28.70,SSW,200,0.0,4.0,94,0.02,FEW,,1.76,0.0,WeatherDisplay:10.37,2013-07-30 19:10:00,
2013-07-30 14:20:00,74.2,72.7,28.70,SSW,200,0.0,3.0,95,0.02,RA,,1.77,0.0,WeatherDisplay:10.37,2013-07-30 19:20:00,
2013-07-30 14:30:00,74.6,72.8,28.70,SSW,200,2.0,3.0,94,0.02,FEW,,1.77,0.0,WeatherDisplay:10.37,2013-07-30 19:30:00,
2013-07-30 14:40:00,74.8,72.6,28.70,SSW,200,0.0,3.0,93,0.02,FEW,,1.77,0.0,WeatherDisplay:10.37,2013-07-30 19:40:00,
2013-07-30 14:50:00,75.0,72.8,28.69,SSW,200,1.0,4.0,93,0.02,RA,,1.78,0.0,WeatherDisplay:10.37,2013-07-30 19:50:00,
2013-07-30 15:00:00,75.3,73.1,28.69,SSW,195,1.0,4.0,93,0.02,FEW,,1.78,0.0,WeatherDisplay:10.37,2013-07-30 20:00:00,
2013-07-30 15:10:00,75.6,73.8,28.69,SSW,194,0.0,2.0,94,0.03,RA,,1.79,0.0,WeatherDisplay:10.37,2013-07-30 20:10:00,
2013-07-30 15:20:00,75.7,73.8,28.69,SSW,194,0.0,2.0,94,0.02,FEW,,1.79,0.0,WeatherDisplay:10.37,2013-07-30 20:20:00,
2013-07-30 15:30:00,75.9,74.0,28.69,SSW,194,1.0,3.0,94,0.02,FEW,,1.79,0.0,WeatherDisplay:10.37,2013-07-30 20:30:00,
2013-07-30 15:40:00,75.9,74.0,28.68,SSW,194,1.0,3.0,94,0.02,FEW,,1.79,0.0,WeatherDisplay:10.37,2013-07-30 20:40:00,
2013-07-30 15:50:00,76.1,73.9,28.68,SSW,194,2.0,4.0,93,0.02,RA,,1.80,0.0,WeatherDisplay:10.37,2013-07-30 20:50:00,
2013-07-30 16:00:00,76.3,74.1,28.68,South,181,0.0,5.0,93,0.02,FEW,,1.80,0.0,WeatherDisplay:10.37,2013-07-30 21:00:00,
2013-07-30 16:10:00,76.5,74.3,28.68,South,178,0.0,4.0,93,0.01,FEW,,1.80,0.0,WeatherDisplay:10.37,2013-07-30 21:10:00,
2013-07-30 16:20:00,76.7,74.5,28.68,South,178,0.0,4.0,93,0.02,RA,,1.81,0.0,WeatherDisplay:10.37,2013-07-30 21:20:00,
2013-07-30 16:30:00,77.2,75.1,28.68,South,178,1.0,4.0,93,0.02,FEW,,1.81,0.0,WeatherDisplay:10.37,2013-07-30 21:30:00,
2013-07-30 16:40:00,77.8,75.3,28.68,South,178,0.0,4.0,92,0.02,FEW,,1.81,0.0,WeatherDisplay:10.37,2013-07-30 21:40:00,
2013-07-30 16:50:00,78.6,76.1,28.68,South,178,0.0,2.0,92,0.01,FEW,,1.81,0.0,WeatherDisplay:10.37,2013-07-30 21:50:00,
2013-07-30 17:00:00,79.1,76.2,28.68,South,178,0.0,3.0,91,0.01,FEW,,1.81,0.0,WeatherDisplay:10.37,2013-07-30 22:00:00,
2013-07-30 17:10:00,79.3,76.1,28.68,South,178,0.0,2.0,90,0.02,RA,,1.82,0.0,WeatherDisplay:10.37,2013-07-30 22:10:00,
2013-07-30 17:20:00,79.8,76.6,28.68,South,178,0.0,1.0,90,0.01,FEW,,1.82,0.0,WeatherDisplay:10.37,2013-07-30 22:20:00,
2013-07-30 17:30:00,80.0,76.5,28.67,South,178,0.0,3.0,89,0.01,FEW,,1.82,0.0,WeatherDisplay:10.37,2013-07-30 22:30:00,
2013-07-30 17:40:00,80.1,76.6,28.67,South,178,0.0,1.0,89,0.01,FEW,,1.82,0.0,WeatherDisplay:10.37,2013-07-30 22:40:00,
2013-07-30 17:50:00,79.8,76.3,28.67,South,178,0.0,3.0,89,0.01,FEW,,1.82,0.0,WeatherDisplay:10.37,2013-07-30 22:50:00,
2013-07-30 18:00:00,79.6,76.1,28.67,South,178,0.0,1.0,89,0.02,RA,,1.83,0.0,WeatherDisplay:10.37,2013-07-30 23:00:00,
2013-07-30 18:10:00,79.4,75.9,28.67,South,178,0.0,0.0,89,0.01,FEW,,1.83,0.0,WeatherDisplay:10.37,2013-07-30 23:10:00,
2013-07-30 18:20:00,79.4,76.2,28.67,South,178,0.0,0.0,90,0.01,FEW,,1.83,0.0,WeatherDisplay:10.37,2013-07-30 23:20:00,
2013-07-30 18:30:00,79.3,76.1,28.67,South,178,0.0,0.0,90,0.01,FEW,,1.83,0.0,WeatherDisplay:10.37,2013-07-30 23:30:00,
2013-07-30 18:40:00,79.3,76.4,28.67,South,178,0.0,0.0,91,0.01,FEW,,1.83,0.0,WeatherDisplay:10.37,2013-07-30 23:40:00,
2013-07-30 18:50:00,79.2,76.3,28.67,SW,224,0.0,0.0,91,0.01,FEW,,1.83,0.0,WeatherDisplay:10.37,2013-07-30 23:50:00,
2013-07-30 19:00:00,79.0,76.5,28.67,SW,229,0.0,0.0,92,0.00,FEW,,1.83,0.0,WeatherDisplay:10.37,2013-07-31 00:00:00,
2013-07-30 19:10:00,78.9,76.4,28.67,SW,229,0.0,1.0,92,0.00,FEW,,1.83,0.0,WeatherDisplay:10.37,2013-07-31 00:10:00,
2013-07-30 19:20:00,78.8,76.3,28.67,SW,229,0.0,2.0,92,0.01,RA,,1.84,0.0,WeatherDisplay:10.37,2013-07-31 00:20:00,
2013-07-30 19:30:00,78.6,76.1,28.67,SW,229,0.0,1.0,92,0.01,FEW,,1.84,0.0,WeatherDisplay:10.37,2013-07-31 00:30:00,
2013-07-30 19:40:00,78.5,76.3,28.67,SW,229,0.0,1.0,93,0.01,FEW,,1.84,0.0,WeatherDisplay:10.37,2013-07-31 00:40:00,
2013-07-30 19:50:00,78.4,75.9,28.67,SW,227,0.0,4.0,92,0.01,FEW,,1.84,0.0,WeatherDisplay:10.37,2013-07-31 00:50:00,
2013-07-30 20:00:00,78.4,76.2,28.67,SW,223,0.0,3.0,93,0.01,FEW,,1.84,0.0,WeatherDisplay:10.37,2013-07-31 01:00:00,
2013-07-30 20:10:00,78.0,75.8,28.67,SW,222,0.0,2.0,93,0.01,FEW,,1.84,0.0,WeatherDisplay:10.37,2013-07-31 01:10:00,
2013-07-30 20:20:00,77.5,75.6,28.67,SW,222,0.0,0.0,94,0.00,FEW,,1.84,0.0,WeatherDisplay:10.37,2013-07-31 01:20:00,
2013-07-30 20:30:00,77.1,75.6,28.67,SW,222,0.0,0.0,95,0.00,FEW,,1.84,0.0,WeatherDisplay:10.37,2013-07-31 01:30:00,
2013-07-30 20:40:00,76.8,75.2,28.67,SW,222,0.0,0.0,95,0.01,RA,,1.85,0.0,WeatherDisplay:10.37,2013-07-31 01:40:00,
2013-07-30 20:50:00,76.5,75.2,28.67,SW,222,0.0,0.0,96,0.01,FEW,,1.85,0.0,WeatherDisplay:10.37,2013-07-31 01:50:00,
2013-07-30 21:00:00,76.2,75.0,28.68,SW,222,0.0,0.0,96,0.01,FEW,,1.85,0.0,WeatherDisplay:10.37,2013-07-31 02:00:00,
2013-07-30 21:10:00,75.8,74.6,28.68,SW,222,0.0,1.0,96,0.01,FEW,,1.85,0.0,WeatherDisplay:10.37,2013-07-31 02:10:00,
2013-07-30 21:20:00,75.6,74.4,28.68,SW,222,0.0,0.0,96,0.01,FEW,,1.85,0.0,WeatherDisplay:10.37,2013-07-31 02:20:00,
2013-07-30 21:30:00,75.3,74.4,28.69,SW,222,0.0,0.0,97,0.01,FEW,,1.85,0.0,WeatherDisplay:10.37,2013-07-31 02:30:00,
2013-07-30 21:40:00,75.2,74.3,28.69,SW,222,0.0,0.0,97,0.00,FEW,,1.85,0.0,WeatherDisplay:10.37,2013-07-31 02:40:00,
2013-07-30 21:50:00,74.9,74.0,28.70,SW,222,0.0,0.0,97,0.00,FEW,,1.85,0.0,WeatherDisplay:10.37,2013-07-31 02:50:00,
2013-07-30 22:00:00,74.6,73.7,28.70,SW,222,0.0,1.0,97,0.00,FEW,,1.85,0.0,WeatherDisplay:10.37,2013-07-31 03:00:00,
2013-07-30 22:10:00,74.3,73.4,28.70,SW,222,0.0,0.0,97,0.00,FEW,,1.85,0.0,WeatherDisplay:10.37,2013-07-31 03:10:00,
2013-07-30 22:20:00,74.1,73.2,28.70,SW,222,0.0,0.0,97,0.00,FEW,,1.85,0.0,WeatherDisplay:10.37,2013-07-31 03:20:00,
2013-07-30 22:30:00,73.9,73.3,28.70,SW,222,0.0,0.0,98,0.00,FEW,,1.85,0.0,WeatherDisplay:10.37,2013-07-31 03:30:00,
2013-07-30 22:40:00,73.9,73.3,28.70,SW,222,0.0,0.0,98,0.00,FEW,,1.85,0.0,WeatherDisplay:10.37,2013-07-31 03:40:00,
2013-07-30 22:50:00,73.8,73.2,28.70,SW,222,0.0,0.0,98,0.00,FEW,,1.85,0.0,WeatherDisplay:10.37,2013-07-31 03:50:00,
2013-07-30 23:00:00,73.7,73.1,28.71,SW,222,0.0,0.0,98,0.00,FEW,,1.85,0.0,WeatherDisplay:10.37,2013-07-31 04:00:00,
2013-07-30 23:10:00,73.8,73.2,28.71,SW,222,0.0,0.0,98,0.01,RA,,1.86,0.0,WeatherDisplay:10.37,2013-07-31 04:10:00,
2013-07-30 23:20:00,73.9,73.3,28.71,SW,222,0.0,0.0,98,0.01,FEW,,1.86,0.0,WeatherDisplay:10.37,2013-07-31 04:20:00,
2013-07-30 23:30:00,73.9,73.6,28.71,SW,222,0.0,0.0,99,0.01,FEW,,1.86,0.0,WeatherDisplay:10.37,2013-07-31 04:30:00,
2013-07-30 23:40:00,74.0,73.7,28.71,SW,222,0.0,0.0,99,0.01,FEW,,1.86,0.0,WeatherDisplay:10.37,2013-07-31 04:40:00,
2013-07-30 23:50:00,73.9,73.6,28.70,SW,222,0.0,0.0,99,0.01,FEW,,1.86,0.0,WeatherDisplay:10.37,2013-07-31 04:50:00,